Vorticity
nan nan nan nan nan nan nan nan nan nan nan nan nan nan nan nan nan nan nan nan nan nan nan nan nan nan nan nan nan nan nan nan nan nan nan nan nan nan nan nan nan nan nan nan nan nan nan nan nan nan nan nan nan nan nan nan nan nan nan nan nan nan nan nan nan nan nan nan nan nan nan nan nan nan nan nan nan nan nan nan nan nan nan nan nan nan nan nan nan nan nan nan nan nan nan nan nan nan nan nan nan nan nan
nan 6 7 7 5 5 7 6 3 3 5 5 4 3 3 3 4 5 5 6 5 4 4 4 5 5 6 7 7 7 6 5 5 5 5 5 5 6 7 6 5 4 5 5 6 7 9 11 11 9 8 8 8 7 7 7 7 8 9 9 9 9 9 9 9 8 8 7 7 7 7 8 10 13 16 17 14 9 7 6 6 6 6 6 6 7 8 9 10 11 12 14 15 15 14 13 12 10 9 9 7 9 nan
nan 6 6 6 6 6 6 5 4 5 7 8 7 5 3 3 4 5 5 5 6 5 5 5 5 5 6 6 7 7 6 6 6 6 6 4 4 5 7 8 6 5 6 6 8 6 9 11 10 8 7 6 7 7 7 6 7 7 7 8 8 8 9 9 8 8 7 7 7 7 7 9 12 15 17 14 8 6 6 6 6 6 6 6 5 5 6 6 6 7 8 9 10 11 11 12 11 10 11 10 8 9 nan
nan 6 5 5 6 6 6 5 5 6 7 7 7 6 5 4 4 5 5 5 5 5 5 5 5 5 5 6 6 6 6 6 6 6 6 4 3 4 7 9 8 9 8 9 11 5 6 8 5 6 5 6 6 7 6 5 6 6 6 7 8 8 8 8 8 7 7 7 7 7 7 9 12 14 14 10 6 6 6 6 6 6 5 5 4 4 4 4 4 5 5 6 7 7 8 9 9 9 9 10 8 7 nan
nan 5 5 5 5 6 5 5 6 6 6 6 6 6 6 7 5 5 4 5 5 5 5 6 6 6 6 6 6 6 6 6 5 6 6 4 4 4 6 7 9 9 9 11 11 8 5 4 2 3 5 6 5 5 6 5 6 6 6 7 8 8 8 8 8 7 7 7 7 7 7 8 10 10 9 7 6 6 6 6 5 5 4 4 4 4 4 3 3 3 4 5 7 8 7 7 7 7 7 7 7 5 nan
nan 5 5 4 5 5 5 5 6 5 5 5 5 6 7 8 6 4 4 5 5 5 6 6 7 6 6 6 6 6 7 7 5 7 6 5 5 5 7 6 7 6 7 9 8 11 7 4 4 3 4 3 3 5 5 6 6 6 7 7 8 8 9 8 8 7 7 7 7 7 7 7 7 6 6 5 6 5 3 2 1 1 2 3 3 3 3 3 3 3 4 5 5 7 8 7 6 6 6 6 6 4 nan
nan 5 5 4 4 5 5 6 5 4 4 4 5 7 7 6 5 5 6 6 6 6 5 6 7 6 6 6 6 7 6 5 4 7 7 6 5 5 6 7 8 6 6 7 5 7 7 5 5 3 3 1 2 4 5 6 6 7 7 8 9 9 9 8 7 7 7 7 7 7 6 6 6 5 5 5 6 4 0 -4 -2 -1 -2 -0 1 2 3 3 3 5 5 6 6 6 7 7 6 5 6 7 7 6 nan
nan 5 4 4 4 5 6 6 5 4 4 4 6 8 7 5 5 6 7 7 8 7 5 6 7 6 6 6 7 6 6 4 5 7 6 6 4 4 5 7 8 6 6 7 5 5 5 4 2 2 2 3 3 4 5 5 6 7 7 8 9 9 9 7 6 6 6 6 7 7 7 6 6 5 5 5 6 5 2 -2 1 1 -1 -0 -0 2 4 4 3 5 7 6 6 6 6 6 6 6 6 7 7 8 nan
nan 7 5 4 4 4 5 5 4 4 5 5 5 6 6 5 6 7 8 7 7 7 6 6 7 7 6 6 7 6 6 4 6 6 6 6 5 6 6 6 6 6 6 7 5 4 4 3 0 2 3 5 4 3 4 5 5 6 7 7 7 8 8 7 6 6 6 6 6 7 7 6 6 6 5 4 5 5 5 5 5 5 4 3 4 7 8 7 5 4 7 6 7 6 5 6 7 8 8 7 7 8 nan
nan 7 6 5 5 4 5 4 2 3 5 6 6 5 6 6 7 7 7 8 6 6 7 8 7 6 6 7 7 6 5 5 6 6 6 7 7 6 6 6 6 7 6 6 7 5 6 6 5 6 5 4 4 3 3 4 4 4 5 5 5 6 6 4 5 4 5 6 5 5 6 7 6 6 5 3 5 5 6 7 8 7 6 5 7 8 9 8 7 5 7 8 8 7 7 7 7 8 7 7 7 8 nan
nan 6 6 5 5 5 5 4 2 3 5 6 6 5 6 6 7 7 7 8 7 6 7 8 8 7 7 7 5 6 5 6 6 5 6 7 5 5 6 6 6 6 7 8 8 7 8 8 8 8 7 6 6 5 4 4 3 4 4 3 4 4 5 3 4 4 5 6 2 3 5 6 6 4 4 3 5 6 7 7 8 7 7 7 8 7 7 6 7 8 8 8 8 7 8 8 8 8 8 7 7 9 nan
nan 5 5 5 6 6 5 5 3 3 6 6 6 6 7 7 7 6 7 7 7 7 7 7 8 8 7 7 6 6 6 6 5 4 4 3 2 5 7 8 7 6 6 7 7 7 8 7 8 7 7 7 7 7 7 6 6 5 5 4 5 5 5 5 5 7 7 6 2 2 5 6 5 3 3 5 6 8 7 8 7 8 7 7 7 7 8 8 7 7 7 6 7 8 9 9 8 9 8 8 9 9 nan
nan 5 5 5 5 6 6 5 4 3 6 6 6 7 8 7 6 6 7 7 7 7 7 7 7 7 6 7 7 7 7 7 6 3 3 3 4 5 6 7 6 6 6 7 6 6 7 7 7 7 6 6 6 7 7 7 8 6 6 6 7 6 5 6 6 7 6 5 5 5 7 7 5 5 5 7 6 9 7 8 7 9 7 7 6 7 7 8 8 8 7 7 6 7 8 9 9 8 8 8 9 8 nan
nan 5 5 6 5 6 6 5 4 3 5 6 7 7 7 6 5 7 7 7 7 7 6 7 7 7 6 6 6 6 6 7 7 6 5 5 6 4 5 6 5 5 6 7 6 7 6 7 7 7 6 6 6 6 6 6 7 6 6 7 7 7 5 6 6 6 5 6 8 9 8 7 7 8 9 9 5 7 7 7 8 8 6 6 6 7 6 6 6 7 8 8 8 8 8 8 8 8 8 8 7 8 nan
nan 5 5 5 5 6 6 6 5 3 4 6 8 6 6 6 6 7 8 8 7 6 6 6 7 6 6 6 5 5 6 6 6 6 5 5 6 4 5 6 6 5 6 7 6 7 6 6 7 7 6 7 6 6 6 6 6 6 6 6 6 7 7 6 5 6 7 7 8 8 8 8 7 8 8 8 8 8 9 7 7 6 6 6 5 7 7 6 6 6 7 6 7 8 8 7 7 6 6 7 7 8 nan
nan 5 5 5 5 5 5 6 7 5 5 5 6 6 6 7 7 8 8 8 8 6 7 8 7 6 6 6 5 5 6 7 7 6 5 4 6 5 4 5 6 7 7 7 7 7 7 7 7 6 6 7 7 6 6 6 6 6 6 6 6 6 7 7 5 7 8 8 8 7 8 9 9 9 7 6 7 8 8 7 5 7 9 7 5 6 6 6 5 6 6 6 6 7 7 7 6 6 6 6 7 7 nan
nan 6 6 5 5 5 5 5 6 7 6 5 5 7 7 8 8 8 7 7 7 6 7 8 7 7 6 5 6 7 7 7 7 8 6 5 3 4 4 4 5 7 7 7 8 7 7 7 7 7 7 7 7 6 6 7 6 6 6 6 6 7 7 7 6 7 7 8 8 7 7 7 8 10 11 9 8 7 5 6 4 7 10 10 8 7 6 6 5 7 7 6 5 5 6 6 6 6 6 6 7 7 nan
nan 7 7 6 6 5 5 4 5 6 7 6 5 6 8 8 8 7 7 6 5 6 7 8 6 6 5 6 7 8 7 6 6 7 8 7 3 4 4 5 5 6 6 7 7 8 8 7 7 7 7 7 7 8 7 7 6 6 6 6 6 7 6 7 6 7 7 7 7 7 7 7 7 8 9 9 9 8 8 9 9 9 9 9 10 9 8 8 8 9 9 7 5 4 5 5 6 6 7 7 7 7 nan
nan 8 7 6 6 6 6 5 5 6 6 6 6 6 8 8 8 7 6 5 6 7 8 8 5 5 6 7 8 8 6 5 7 7 8 7 6 5 5 4 5 7 7 7 7 7 8 8 7 7 7 7 7 8 7 7 6 6 6 6 7 6 6 6 6 7 7 7 7 7 7 7 8 8 7 7 6 7 7 9 11 10 10 9 7 7 8 8 9 9 9 7 5 6 6 6 6 7 7 7 8 8 nan
nan 8 7 6 5 6 7 6 6 6 6 6 7 7 8 8 8 7 6 7 7 8 8 7 5 5 7 8 8 6 5 5 8 7 8 9 10 6 4 2 4 6 7 7 7 8 7 8 8 7 7 7 7 8 7 6 6 7 7 7 7 6 5 6 6 7 7 7 7 6 7 7 7 8 8 7 7 6 6 7 9 9 10 10 7 6 7 7 9 8 8 7 6 7 7 7 8 7 7 7 8 8 nan
nan 8 7 6 5 6 6 7 8 8 7 7 7 8 7 8 8 8 8 8 8 8 7 5 6 7 8 8 7 5 5 7 7 6 7 10 11 7 4 1 2 5 6 6 6 8 7 8 8 8 8 8 9 8 8 8 7 7 6 7 7 7 6 6 6 6 7 7 7 6 6 6 7 9 9 9 9 8 9 9 9 8 8 9 9 8 8 7 8 7 8 7 7 7 7 7 8 8 8 7 7 7 nan
nan 9 8 7 5 6 6 5 6 8 7 7 6 8 7 7 6 8 8 8 8 8 6 5 7 8 8 7 5 5 6 7 6 6 7 9 9 8 6 4 4 5 6 6 7 6 7 7 8 8 8 8 8 8 8 8 7 7 7 7 7 7 7 6 6 6 6 7 7 7 6 6 7 8 9 9 9 8 9 9 9 8 8 9 9 9 9 9 8 7 7 7 7 7 7 7 7 8 8 7 7 6 nan
nan 10 9 7 6 6 6 6 4 5 6 7 7 7 6 7 7 7 8 8 8 7 7 7 9 8 7 6 5 6 7 7 6 8 8 8 8 7 6 6 5 5 6 6 7 6 7 7 7 8 8 8 8 8 8 8 8 8 7 7 7 7 7 6 6 6 6 7 7 6 5 4 5 6 7 8 8 8 8 9 8 8 7 8 9 9 10 10 10 9 7 7 6 6 7 7 6 7 7 7 7 7 nan
nan 11 10 8 7 5 5 7 6 5 6 7 8 7 7 7 8 7 7 7 7 8 8 9 8 7 6 6 6 7 7 7 7 9 10 9 8 6 4 5 4 4 5 7 7 7 7 7 6 7 7 8 8 8 8 8 8 7 7 7 7 7 7 6 5 4 6 7 7 5 5 5 6 7 8 8 8 8 8 8 7 8 7 7 8 8 9 9 10 10 8 8 6 6 6 6 6 7 7 7 6 7 nan
nan 12 11 9 8 6 5 6 6 5 6 7 8 8 8 9 9 8 7 7 7 8 9 9 7 6 6 6 7 7 7 7 8 9 10 11 9 6 4 3 4 6 6 7 7 8 8 7 6 6 7 7 8 8 8 8 8 8 7 7 7 7 7 6 4 5 7 9 9 8 8 8 9 8 8 8 8 8 8 7 7 8 7 7 7 7 8 9 9 8 8 9 9 8 7 6 6 6 7 8 7 7 nan
nan 12 11 10 9 6 6 5 6 6 6 7 8 7 8 9 9 8 8 7 7 8 8 7 6 7 7 7 7 8 8 8 8 9 10 11 9 7 5 4 5 6 6 5 6 8 8 8 8 7 7 7 7 8 8 8 8 8 8 7 6 7 7 8 8 9 10 10 9 8 8 8 9 9 9 8 7 7 7 7 8 8 8 8 9 9 9 9 9 8 7 7 8 10 9 8 6 6 7 8 8 8 nan
nan 11 9 10 11 8 6 6 7 6 6 6 6 7 8 8 8 8 8 8 8 9 8 6 6 7 7 8 7 8 8 8 8 9 10 10 10 9 7 7 6 5 5 5 5 6 8 9 8 7 7 7 7 8 7 7 7 8 8 8 7 7 7 8 10 11 10 9 8 7 7 7 9 9 9 8 6 6 7 7 8 7 7 7 9 10 10 10 9 9 8 7 7 9 9 9 8 7 6 7 7 7 nan
nan 11 7 8 12 10 7 6 6 6 6 5 4 5 7 7 7 8 7 7 8 8 9 7 7 7 8 8 8 8 8 8 8 8 9 9 11 10 9 7 6 5 5 5 4 4 6 8 8 7 7 7 8 8 8 7 7 7 7 8 8 8 8 8 9 8 8 8 8 8 8 7 7 8 8 8 6 5 7 8 7 6 6 6 7 8 9 9 9 9 8 7 7 7 8 8 9 8 7 7 7 7 nan
nan 10 8 7 10 9 6 6 6 6 6 6 4 5 6 6 6 6 7 8 7 8 8 7 7 7 8 8 8 8 7 7 8 8 8 8 10 11 10 8 7 6 6 5 5 4 4 7 8 7 7 7 7 8 9 9 8 7 6 7 8 8 8 8 8 8 8 8 8 8 8 8 6 7 7 8 7 6 7 8 8 7 6 6 6 7 7 7 8 9 8 8 7 7 7 8 9 9 8 7 7 7 nan
nan 11 9 7 6 8 7 6 6 6 6 6 6 6 7 6 6 5 6 7 7 7 8 8 7 7 7 8 8 8 8 8 8 8 8 7 8 9 10 9 8 7 7 7 7 6 4 5 7 8 7 7 7 7 8 9 9 7 7 8 8 8 8 9 9 8 8 8 8 8 8 8 7 6 7 7 7 7 8 9 9 8 6 5 6 6 6 6 7 7 7 7 8 7 7 7 9 9 8 7 6 7 nan
nan 10 9 6 4 6 6 6 6 6 6 6 5 6 7 7 7 6 6 7 6 7 8 8 7 7 7 7 8 8 8 8 8 8 7 7 7 9 10 9 9 8 8 8 8 7 6 5 6 7 7 7 7 7 8 8 8 7 8 9 8 8 8 9 9 9 9 8 8 8 8 9 8 7 5 5 7 8 7 8 8 8 8 6 6 5 5 5 6 6 7 7 8 7 6 7 9 10 9 8 7 7 nan
nan 9 10 7 4 5 6 7 7 7 6 6 5 5 6 7 7 7 6 6 7 7 8 8 7 7 7 8 8 8 8 8 8 7 7 7 7 8 9 8 9 9 9 9 8 8 7 5 5 7 7 6 6 6 7 7 7 8 9 9 8 8 8 9 9 9 9 9 8 8 7 8 9 8 6 4 5 7 7 7 8 8 8 8 7 7 6 5 5 5 6 6 8 7 6 6 8 9 9 9 9 8 nan
nan 7 10 8 5 6 7 8 10 10 9 8 8 7 7 7 7 7 7 8 8 8 9 9 8 7 7 8 8 8 8 8 8 8 7 7 7 7 8 9 9 10 10 9 9 9 9 7 6 6 6 6 5 5 6 6 6 8 9 8 8 7 7 8 8 8 8 8 8 8 7 7 9 10 8 6 6 6 7 7 8 8 8 9 10 10 9 7 4 5 6 6 7 7 7 6 7 8 9 8 8 9 nan
nan 7 10 9 6 6 7 8 10 11 11 10 9 9 8 8 8 8 8 8 9 9 8 8 8 8 7 7 7 8 8 8 8 8 8 7 6 6 7 10 10 10 9 9 9 9 10 9 7 7 6 6 6 6 5 5 5 7 8 9 8 8 7 7 7 7 8 8 8 8 7 7 8 10 9 8 7 7 7 7 7 8 8 9 10 10 10 10 6 5 6 6 6 7 7 7 7 8 8 8 7 7 nan
nan 9 9 8 5 5 6 7 8 9 10 10 9 8 8 9 9 8 8 8 8 8 8 8 8 8 8 7 7 7 8 8 8 8 7 6 4 5 7 11 11 8 7 7 7 9 10 10 8 7 7 7 7 7 6 6 6 7 8 9 8 8 7 7 8 8 8 8 8 7 7 6 6 7 9 8 7 5 6 7 6 7 7 8 9 9 9 9 8 6 7 7 6 6 7 7 7 7 8 8 6 6 nan
nan 8 8 8 6 4 6 7 7 8 8 8 8 7 7 8 9 8 8 8 7 7 8 9 8 8 8 8 7 8 8 8 8 7 6 4 4 7 8 10 10 7 7 7 7 9 10 10 8 7 7 7 8 8 7 7 7 8 8 8 8 7 7 7 8 9 9 8 7 7 6 6 5 5 7 9 8 5 4 5 6 6 7 7 9 9 9 9 8 6 7 8 8 7 7 7 8 7 7 7 6 5 nan
nan 7 6 7 6 6 6 6 7 7 7 7 7 7 7 7 8 8 8 8 8 9 10 10 10 9 9 9 9 9 9 8 8 7 5 5 7 9 8 10 9 7 7 8 9 10 11 10 8 8 8 9 8 7 7 7 9 9 9 9 8 7 7 7 7 8 8 7 7 7 7 7 7 6 6 7 9 9 7 7 8 8 8 9 9 9 9 10 9 7 7 8 8 8 7 7 6 6 6 6 6 6 nan
nan 8 6 5 5 7 7 7 7 7 7 7 8 7 8 8 8 8 8 9 9 10 11 11 11 10 10 11 11 11 10 9 9 8 7 8 9 9 10 12 10 8 8 9 10 11 12 12 11 10 9 9 8 8 8 10 11 11 10 9 8 8 8 7 5 3 3 4 5 6 7 9 10 10 8 6 7 9 10 9 9 9 9 9 9 10 10 10 10 8 8 8 9 8 8 7 4 4 4 5 6 6 nan
nan 10 7 4 5 6 8 8 8 8 8 8 9 9 10 11 11 11 11 10 10 9 10 11 10 9 10 12 12 11 10 10 10 8 8 10 12 12 13 13 10 9 10 12 12 11 13 13 11 10 10 9 9 10 10 11 11 11 10 10 9 9 8 8 6 4 4 4 4 2 4 7 10 12 12 9 7 8 9 10 9 10 10 10 10 9 10 11 11 11 9 9 10 11 11 11 7 5 4 4 5 6 nan
nan 14 11 5 5 7 9 9 9 9 10 10 10 11 11 12 11 11 11 10 10 10 9 8 8 8 10 11 11 10 10 10 9 8 9 11 13 14 13 11 9 11 13 14 11 11 12 11 10 10 10 9 7 9 10 10 10 10 10 10 10 8 6 5 7 6 6 6 7 5 4 5 8 11 13 12 10 8 9 9 8 10 11 11 13 10 8 9 10 13 13 11 10 11 13 13 13 9 7 5 3 4 nan
nan 16 13 9 7 10 10 9 8 9 10 11 10 10 10 10 9 8 8 7 6 8 8 8 7 8 10 11 10 8 9 9 9 8 8 9 11 13 11 9 8 10 12 12 10 10 11 11 11 10 9 7 7 7 8 9 9 9 10 9 10 9 9 8 9 8 8 11 15 14 10 5 4 7 11 13 13 9 8 8 9 10 11 8 9 10 6 4 4 7 11 14 15 13 14 15 16 14 13 10 5 2 nan
nan 13 11 10 8 11 11 10 8 8 9 10 9 8 7 6 6 7 7 7 6 8 9 10 8 9 10 10 9 8 8 8 9 9 8 7 7 10 10 10 9 10 11 10 8 9 11 12 12 10 9 7 8 8 9 9 9 9 9 9 9 11 12 13 13 14 14 14 15 18 16 12 6 3 5 9 11 10 9 9 10 10 10 4 2 5 7 7 7 6 9 12 14 14 15 15 15 15 17 18 14 5 nan
nan 9 8 7 8 10 12 12 10 9 10 10 9 7 7 6 7 9 10 10 11 12 12 12 11 10 9 10 9 7 6 5 7 8 7 5 5 9 10 9 8 9 10 7 6 8 10 13 12 9 8 8 8 9 9 9 10 10 9 8 8 9 10 11 11 11 11 10 9 12 14 15 11 5 1 1 5 8 9 12 12 10 9 6 3 4 8 12 13 11 10 9 8 12 13 14 13 12 13 17 21 15 nan
nan 9 9 9 10 11 12 13 13 13 13 13 13 12 11 11 12 12 12 13 14 13 12 12 11 9 8 9 9 7 4 3 4 6 7 6 6 7 7 6 6 8 8 7 6 7 10 12 10 8 8 8 10 11 10 10 9 7 8 9 9 9 9 9 8 7 8 9 8 7 7 8 8 9 5 2 2 5 6 9 12 11 9 8 5 5 5 8 11 10 6 5 8 11 12 14 15 11 9 11 17 18 nan
nan 11 11 11 11 11 12 13 15 16 16 16 16 16 15 14 12 10 11 10 10 9 8 8 7 6 5 6 7 6 4 4 5 7 7 7 7 6 4 3 6 8 7 7 7 7 9 10 9 8 9 11 14 12 10 8 7 6 8 9 9 9 9 9 9 11 11 9 7 5 3 1 3 8 8 5 5 6 6 5 9 11 11 10 8 6 3 1 3 7 8 9 11 10 9 9 10 10 8 11 15 18 nan
nan 13 12 12 12 12 11 12 13 14 15 15 15 14 13 12 10 9 9 8 6 6 7 7 6 4 5 5 6 7 5 5 6 7 7 7 7 5 3 3 6 8 8 8 8 8 8 8 9 10 10 12 12 9 8 7 8 10 10 9 10 10 10 9 10 11 10 8 7 6 6 6 7 9 9 8 4 5 6 6 7 10 11 11 11 10 7 1 -4 0 5 8 8 9 8 7 7 9 11 13 14 16 nan
nan 12 13 13 13 11 10 10 10 10 11 13 12 11 10 10 9 9 9 8 8 8 8 8 8 8 7 6 6 7 6 6 6 7 8 7 6 5 5 6 8 9 8 8 9 8 8 9 10 11 10 9 8 8 8 10 11 12 11 12 12 11 10 9 9 8 9 11 11 11 13 14 11 10 11 12 6 5 6 8 7 8 10 10 11 13 13 9 0 -4 -4 -5 -5 1 4 7 8 9 9 10 12 14 nan
nan 11 11 11 11 9 8 8 8 7 7 8 8 8 7 8 7 8 10 11 11 10 9 9 9 9 8 6 5 6 6 7 7 8 8 7 6 7 8 7 8 9 9 9 9 8 9 9 9 9 9 7 7 9 10 12 13 13 12 12 12 10 9 9 9 9 9 10 12 12 12 11 10 10 11 13 15 11 9 9 9 6 7 10 12 14 16 15 9 2 -1 -4 -7 -6 -4 -1 4 10 9 5 6 11 nan
nan 11 11 10 8 6 5 4 3 4 4 5 6 7 6 6 5 6 8 10 11 10 9 8 9 8 7 5 4 6 7 7 7 8 7 6 7 8 9 8 7 6 8 11 9 6 8 8 7 8 8 8 9 9 9 12 14 13 12 12 11 11 11 11 10 9 9 10 11 12 10 9 10 10 9 10 15 13 11 11 11 9 8 9 12 17 19 17 14 10 8 7 4 -2 -4 -4 -2 5 6 6 6 8 nan
nan 12 10 9 7 6 5 4 2 3 3 3 6 9 8 7 6 6 7 7 9 9 8 7 7 6 5 3 5 9 9 8 7 6 6 6 7 9 10 10 7 4 7 10 9 5 6 6 7 7 8 10 10 9 11 13 14 14 14 14 13 12 13 13 11 11 11 10 9 10 9 9 10 9 9 11 11 12 12 11 13 13 12 9 11 13 15 15 12 12 14 15 14 10 8 6 3 0 -1 2 5 6 nan
nan 8 7 6 5 6 6 7 6 6 5 4 5 9 11 9 8 7 6 5 6 7 6 5 5 5 6 6 9 10 8 6 6 6 6 6 8 10 10 10 7 6 6 7 7 6 5 6 6 6 8 11 12 10 9 11 14 15 14 14 14 14 14 13 12 12 10 8 7 8 10 11 12 14 15 14 11 13 13 12 12 13 13 12 10 8 8 10 12 11 12 14 17 18 17 16 14 8 2 -1 1 6 nan
nan 4 3 3 4 5 5 6 6 7 8 8 7 8 11 11 8 6 6 4 5 6 6 6 6 7 8 9 9 8 7 6 6 7 6 7 7 9 10 9 8 8 6 5 5 6 5 7 6 6 9 11 10 7 7 11 14 14 12 13 15 15 14 12 11 9 8 8 10 11 12 14 16 17 16 13 10 12 13 13 11 12 13 13 12 10 9 11 14 15 13 13 13 15 16 17 16 15 13 9 5 6 nan
nan 3 3 3 4 4 4 5 7 8 8 8 8 8 9 8 7 4 5 5 5 7 9 9 8 8 7 7 6 6 7 8 9 9 7 6 8 12 12 10 9 8 7 6 5 5 5 6 6 7 9 10 9 9 10 12 12 11 12 15 17 15 12 10 8 8 10 13 15 16 16 16 17 15 13 11 12 14 14 14 14 14 14 14 14 14 13 13 16 19 19 18 15 14 14 15 16 17 19 18 14 9 nan
nan 4 3 3 4 4 5 6 8 8 8 7 6 7 7 6 4 4 5 6 6 7 9 9 6 6 6 6 7 8 9 11 12 10 8 7 11 14 12 10 9 8 8 8 7 5 5 6 7 8 9 9 10 12 12 10 10 12 14 16 15 13 9 7 9 13 16 17 17 17 17 17 16 15 14 14 17 18 15 14 15 15 16 16 16 15 15 15 17 19 21 21 20 18 18 18 18 18 19 18 18 16 nan
nan 4 4 5 5 6 6 7 7 7 6 5 6 6 6 4 5 6 7 6 5 4 6 5 4 6 8 10 11 11 11 12 11 9 9 9 11 11 10 9 9 8 8 8 9 7 7 6 8 8 8 9 12 13 11 8 10 13 14 13 12 10 8 9 12 15 16 15 14 14 15 14 15 15 15 16 19 20 17 14 13 14 15 16 16 15 14 14 16 17 18 18 18 19 19 19 17 16 16 17 19 21 nan
nan 5 5 6 7 7 5 4 3 2 1 3 6 6 5 5 7 9 8 7 4 3 6 8 9 11 13 15 15 12 11 10 9 9 9 8 8 9 9 9 9 9 9 9 9 9 8 7 7 8 8 10 13 11 8 7 11 13 12 11 10 9 10 12 13 13 12 13 12 13 13 13 13 14 14 13 16 18 16 13 13 14 13 13 12 11 9 9 11 13 12 12 14 14 15 15 13 12 12 14 18 19 nan
nan 6 7 7 6 2 -1 -3 -2 1 3 8 7 5 6 7 8 9 8 8 7 9 13 14 13 13 14 15 13 10 10 9 9 8 9 8 9 10 10 10 9 9 9 10 10 9 9 8 7 6 8 11 12 9 8 9 12 12 11 10 9 10 11 11 10 10 10 12 13 13 13 12 13 14 13 11 12 13 13 12 12 11 10 8 9 9 8 6 8 9 9 9 9 10 11 11 11 9 9 9 11 13 nan
nan 5 4 2 -2 -3 -3 1 6 10 12 13 9 7 8 8 7 7 8 9 11 14 15 12 8 9 9 10 10 9 9 9 9 9 9 8 9 9 9 9 9 9 10 10 10 9 8 7 5 4 7 11 10 8 9 10 12 12 10 9 9 9 9 10 8 8 10 13 13 12 12 11 12 13 12 11 10 10 10 12 12 10 9 8 11 13 12 9 8 9 9 9 9 9 10 10 10 9 9 9 9 9 nan
nan 2 -2 -5 -4 5 11 15 18 19 16 12 9 8 8 7 8 9 9 10 10 11 10 6 3 3 5 8 9 8 8 9 10 9 9 9 8 8 9 10 10 10 10 10 9 8 7 7 5 5 9 11 10 8 9 10 11 10 10 9 8 7 8 9 8 7 9 12 13 11 10 9 9 9 9 9 10 10 10 12 15 14 12 11 12 15 16 13 10 9 10 10 10 10 10 10 10 10 10 10 10 9 nan
nan 3 -0 -1 7 18 21 20 18 16 12 8 5 6 7 8 10 10 9 8 8 7 6 5 3 3 6 9 9 7 7 9 9 9 9 9 9 9 10 10 10 10 9 9 8 7 7 8 6 7 10 11 8 6 7 8 8 8 8 7 6 6 7 8 8 8 8 8 10 10 8 7 7 8 7 8 9 10 10 12 14 14 12 11 11 12 14 14 12 10 10 10 10 10 9 9 9 10 10 10 10 10 nan
nan nan nan nan nan nan nan nan nan nan nan nan nan nan nan nan nan nan nan nan nan nan nan nan nan nan nan nan nan nan nan nan nan nan nan nan nan nan nan nan nan nan nan nan nan nan nan nan nan nan nan nan nan nan nan nan nan nan nan nan nan nan nan nan nan nan nan nan nan nan nan nan nan nan nan nan nan nan nan nan nan nan nan nan nan nan nan nan nan nan nan nan nan nan nan nan nan nan nan nan nan nan nan
CAPE
1376 1547 1685 1685 1565 1698 1698 1683 1593 1432 1432 943 546 555 555 619 657 723 762 762 804 817 920 920 995 1040 1040 1085 1064 1075 1075 1118 1162 1207 1287 1287 1335 1277 1253 1253 1262 1379 1385 1385 1352 1358 1402 1402 1486 1418 1418 1354 1291 1159 1065 1065 1007 918 801 801 745 719 693 693 665 663 663 639 586 561 561 509 458 536 790 790 1060 1026 889 889 753 620 536 536 485 437 437 390 414 437 437 459 454 467 431 431 392 677 951 951 938 922 742
1436 1647 1787 1787 1812 1988 1988 1894 1876 1895 1895 1759 1371 525 525 535 545 610 676 676 716 728 830 830 904 980 980 1025 1037 1048 1048 1092 1103 1148 1158 1158 1240 1218 1159 1159 1166 1208 1214 1214 1147 1187 1337 1337 1457 1314 1314 1213 1185 1056 932 932 877 853 736 736 681 656 574 574 548 548 548 525 502 478 478 429 430 535 862 862 968 867 736 736 639 517 411 411 364 319 319 298 277 257 257 279 341 379 415 415 404 823 1209 1209 1194 902 586
1533 1748 1851 1851 1874 2091 2091 1994 2054 2072 2072 2089 2026 801 801 504 541 552 561 561 599 610 648 648 718 821 821 896 940 951 951 995 1040 1016 959 959 1037 1118 1094 1094 1031 935 940 940 912 1086 1309 1309 1315 1173 1173 1108 908 755 863 863 840 753 698 698 614 561 510 510 458 434 434 437 442 445 445 449 505 675 942 942 841 711 589 589 504 418 317 317 273 234 234 216 196 177 177 195 232 269 327 327 385 1172 1296 1296 1369 1436 904
1594 1773 1873 1873 1974 2074 2074 2095 2073 2170 2170 2147 2204 1588 1588 723 565 495 504 504 514 523 504 504 569 607 607 645 747 820 820 895 972 982 860 860 836 879 921 921 993 834 1076 1076 978 949 1164 1164 1098 1033 1033 1038 743 595 791 791 736 683 599 599 517 438 390 390 342 296 296 300 329 358 358 440 611 805 842 842 712 592 478 478 398 296 227 227 166 133 133 119 105 105 105 119 189 286 862 862 1044 1415 1377 1377 1378 1368 1273
1615 1755 1893 1893 2074 2016 2016 2075 2090 2066 2066 2121 2178 2236 2236 1726 565 522 451 451 432 413 394 394 402 409 409 443 563 691 691 795 838 847 857 857 739 717 756 756 1059 1137 1326 1326 1079 981 1056 1056 888 962 962 967 581 586 654 654 631 579 499 499 449 372 300 300 215 199 199 184 229 301 301 462 638 772 645 645 558 473 393 393 269 181 125 125 79 56 56 38 30 38 38 70 147 604 1635 1635 1595 1550 1514 1514 1388 1388 1463
1635 1774 1914 1914 2016 2037 2037 2093 2068 2082 2082 2097 2112 2336 2336 1474 596 755 646 646 327 283 314 314 320 302 302 333 448 600 600 729 867 878 954 954 800 780 1189 1189 1306 1628 1517 1517 1447 1192 1019 1019 887 959 959 665 430 579 554 554 472 451 403 403 383 336 244 244 166 118 118 107 142 225 225 346 485 544 459 459 436 386 311 311 160 91 52 52 23 10 10 2 0 13 13 55 241 1352 1386 1386 1465 1475 1473 1473 1393 1474 1432
1615 1753 1895 1895 2118 2138 2138 2155 2089 2143 2143 2281 2339 2314 2314 1236 631 1786 1721 1721 1145 608 471 471 201 185 185 278 388 816 816 924 1245 1185 632 632 610 907 1528 1528 1382 1592 1520 1520 1530 1343 888 888 1170 793 793 483 371 373 376 376 355 335 317 317 297 279 216 216 109 56 56 36 76 122 122 220 292 293 272 272 276 280 255 255 193 61 10 10 1 nan nan nan nan nan nan 16 483 1137 1014 1014 1110 1110 1030 1030 1272 1263 1265
1635 1773 1916 1916 2141 2202 2202 2180 2113 2292 2292 2264 2407 2338 2338 1735 1406 2090 2064 2064 2037 1233 837 837 878 426 426 434 875 951 951 796 1322 1565 825 825 1105 1444 1418 1418 1507 1561 1532 1532 1579 1355 930 930 1002 970 970 704 293 248 228 228 190 195 220 220 225 208 173 173 63 1 1 nan 16 37 37 76 120 121 139 139 161 202 221 221 751 316 272 272 0 nan nan nan nan 0 0 152 738 766 824 824 814 834 856 856 885 947 1104
1693 1755 1898 1898 2124 2228 2228 2248 2263 2235 2235 2291 2478 2195 2195 2166 2054 2590 2344 2344 2227 1693 907 907 1190 482 482 868 1561 1128 1128 1246 1522 1654 1547 1547 1638 1651 1663 1663 1722 1736 1748 1748 1477 1447 1531 1531 1382 843 843 492 317 148 115 115 71 87 123 123 145 115 118 118 26 nan nan nan nan nan nan 3 15 24 48 48 74 131 472 472 718 721 795 795 493 7 7 nan nan 106 106 596 687 650 772 772 732 690 807 807 931 749 707
1977 1963 2111 2111 2050 2278 2278 2423 2480 2540 2540 2512 2440 2630 2630 2511 2349 2275 2289 2289 2303 2273 2112 2112 1829 1802 1802 1816 1914 1887 1887 2253 2364 2243 2210 2210 1871 1803 1654 1654 1794 1725 1657 1657 1079 705 193 193 177 827 827 1355 799 349 127 127 33 33 69 69 45 1 107 107 39 1 1 1 1 1 1 0 0 0 55 55 69 724 576 576 576 446 415 415 459 501 501 534 668 668 668 606 543 636 570 570 505 501 553 553 425 413 370
2082 2192 2299 2299 2277 2424 2424 2444 2458 2563 2563 2360 2591 2517 2517 2574 2499 2380 2305 2305 2319 2246 2216 2216 1929 1858 1858 1873 1804 2168 2168 2363 2249 2131 2191 2191 1681 1533 1505 1505 1895 1784 1305 1305 1437 1614 998 998 1274 1611 1611 1492 1543 1147 675 675 574 643 509 509 412 0 909 909 1235 594 594 45 0 3 3 1 2 29 599 599 539 545 510 510 654 726 449 449 332 398 398 404 540 637 637 542 481 545 514 514 451 536 531 531 406 453 382
2103 2297 2404 2404 2509 2529 2529 2637 2434 2627 2627 2334 2609 2666 2666 2502 2559 2396 2364 2364 2334 2395 2278 2278 2206 1919 1919 1722 1738 2008 2008 2198 1999 1928 1899 1899 2049 2063 2075 2075 1959 1717 1318 1318 1369 1382 1396 1396 1368 1669 1669 1347 1195 1443 1368 1368 1294 1347 1274 1274 1118 66 1539 1539 1542 968 968 1012 457 906 906 314 263 597 752 752 535 618 511 511 699 737 627 627 397 333 333 339 378 511 511 511 481 515 484 484 483 450 477 477 383 376 396
2122 2316 2378 2378 2525 2544 2544 2607 2405 2509 2509 2611 2713 2547 2547 2125 2529 2367 2336 2336 2349 2456 2429 2429 2357 2421 2421 2579 2192 2070 2070 2082 2050 2025 1910 1910 1843 1996 1792 1792 1766 1692 1534 1534 1384 1357 1369 1369 1759 1476 1476 1241 1453 1255 984 984 952 1156 1331 1331 1507 534 1226 1226 1269 1185 1185 1189 948 877 877 874 689 817 527 527 715 727 770 770 782 901 530 530 748 635 635 534 439 479 479 576 549 553 615 615 516 483 420 420 331 268 293
2224 2334 2482 2482 2496 2557 2557 2486 2416 2433 2433 2624 2817 2168 2168 2395 2587 2425 2483 2483 2278 2385 2449 2449 2513 2669 2669 2734 2569 2313 2313 2510 2296 2089 2070 2070 2131 2059 1985 1985 2043 1576 1591 1591 1314 1369 1300 1300 1074 1658 1658 1173 1223 991 997 997 1082 1295 1264 1264 1436 1405 1122 1122 690 1047 1047 1174 845 695 695 886 615 479 630 630 717 809 861 861 838 890 584 584 842 836 836 832 794 908 908 720 618 589 686 686 516 392 219 219 142 59 133
2458 2393 2673 2673 2640 2567 2567 2496 2427 2400 2400 2592 2741 2573 2573 2765 2691 2708 2634 2634 2338 2404 2515 2515 2488 2552 2552 2709 2869 2653 2653 2670 2547 2388 2224 2224 2241 2033 1960 1960 1837 1587 1350 1350 1242 1135 1188 1188 1002 1171 1171 983 1274 1001 1048 1048 1176 1145 1073 1073 1079 1338 934 934 860 1275 1275 1277 784 390 390 524 780 484 299 299 493 612 623 623 913 648 743 743 709 635 635 782 856 892 892 961 766 552 451 451 329 137 39 39 4 nan nan
2426 2318 2554 2554 2743 2623 2623 2596 2439 2328 2328 2388 2713 2814 2814 2737 2799 2771 2743 2743 1800 2154 2720 2720 2691 2344 2344 2684 2610 2490 2490 2463 2571 2635 2469 2469 2258 2043 1972 1972 1724 1564 1360 1360 1250 1347 1236 1236 1128 1513 1513 1070 999 1130 1098 1098 1187 994 805 805 584 818 749 749 999 1044 1044 844 724 343 343 173 308 573 761 761 763 1068 785 785 787 489 848 848 627 676 676 878 1038 993 993 1140 778 333 185 185 111 nan nan nan nan nan nan
2397 2332 2482 2482 2539 2641 2641 2614 2415 2306 2306 2238 2427 2570 2570 2806 3007 2886 2273 2273 1655 2349 2880 2880 1986 2454 2454 2705 2586 2653 2653 2719 2831 2658 2534 2534 2276 2058 2121 2121 1788 1364 1254 1254 1224 1400 1370 1370 1176 1311 1311 917 1293 1557 1354 1354 1239 1124 892 892 705 712 758 758 848 697 697 590 520 297 297 114 34 10 594 594 385 708 531 531 394 186 313 313 222 348 348 459 540 508 508 614 542 93 3 3 nan nan nan nan nan nan nan
2547 2438 2373 2373 2346 2405 2405 2511 2488 2293 2293 2141 2115 2428 2428 2792 3038 2869 2344 2344 2579 2646 2851 2851 1878 2800 2800 2823 2700 2626 2626 3070 2851 2776 2599 2599 2476 2126 2229 2229 1754 1593 1344 1344 1111 1043 1433 1433 1065 1035 1035 694 1056 1355 1238 1238 1165 929 939 939 751 646 543 543 856 988 988 675 533 340 340 177 8 nan nan nan 8 36 24 24 72 24 21 21 9 16 16 7 7 37 37 41 1 nan nan nan nan nan nan nan nan nan nan
2483 2548 2444 2444 2248 2224 2224 2330 2481 2371 2371 2048 1982 2424 2424 2608 2846 2996 2825 2825 2746 2765 2277 2277 2567 2776 2776 2941 2914 3267 3267 2993 2725 2838 2519 2519 2728 2368 2341 2341 1591 1476 1402 1402 1124 1178 948 948 1079 969 969 744 715 878 966 966 893 940 870 870 798 731 519 519 525 757 757 575 580 413 413 356 19 49 14 14 1 6 2 2 12 12 42 42 16 nan nan 8 nan nan nan nan nan nan nan nan nan nan nan nan nan nan nan
2336 2488 2430 2430 2454 2215 2215 2150 2213 2277 2277 2040 2188 2419 2419 2387 2572 2760 2770 2770 2825 2843 2006 2006 2783 2803 2803 2916 3568 3094 3094 2633 2796 3050 2732 2732 2943 2719 2309 2309 1517 1154 1085 1085 1018 950 843 843 973 865 865 682 616 1133 1142 1142 987 913 842 842 850 706 399 399 436 617 617 588 559 396 396 211 66 241 411 411 129 174 246 246 19 1 20 20 14 nan nan 10 1 nan nan nan nan nan nan nan nan nan nan nan nan nan nan
2276 2299 2327 2327 2266 2375 2375 2266 2200 2050 2050 2028 2263 2108 2108 2163 2433 2486 2626 2626 2861 2922 2212 2212 2675 2646 2646 3186 3496 2833 2833 2292 2770 2832 2062 2062 2722 2648 2195 2195 1539 1128 1183 1183 873 581 777 777 600 878 878 619 485 868 1037 1037 886 973 861 861 791 799 552 552 489 636 636 643 650 481 481 281 7 11 339 339 314 316 345 345 174 44 46 46 5 nan nan 0 nan nan nan nan nan nan nan nan nan nan nan nan nan nan nan
2173 2238 2221 2221 2117 2011 2011 1655 2227 2076 2076 2228 1990 1756 1756 2108 2205 2389 2573 2573 2671 2908 2737 2737 2615 2916 2916 3027 3089 2629 2629 2371 2244 2302 2454 2454 2755 2678 2223 2223 1828 1487 1456 1456 1172 940 791 791 505 585 585 559 432 509 663 663 785 992 690 690 734 858 680 680 581 732 732 741 749 540 540 230 33 6 13 13 32 58 42 42 62 23 3 3 0 nan nan nan nan nan nan nan nan nan nan nan nan nan nan nan nan nan nan
2153 2218 2200 2200 2095 1864 1864 1760 1908 1888 1888 2123 1554 1866 1866 2618 2149 2203 2695 2695 2704 2851 2863 2863 2881 3092 3092 2822 2647 2477 2477 2174 1915 2150 2960 2960 3028 2803 2111 2111 1898 1511 1308 1308 1276 1329 1088 1088 486 429 429 374 416 426 469 469 764 892 901 901 718 765 701 701 604 648 648 766 813 567 567 297 112 30 4 4 13 7 nan nan nan 19 nan nan nan nan nan nan nan nan nan nan nan nan nan nan nan nan nan nan nan nan nan
2090 2284 2223 2223 1990 1803 1803 1372 1433 1618 1618 1849 1372 1638 1638 2077 1960 1928 2817 2817 2826 2700 2848 2848 3489 3313 3313 2849 2443 2275 2275 2106 1852 1907 2801 2801 2962 2735 1953 1953 1654 1278 1162 1162 1471 1524 1534 1534 1036 482 482 302 372 580 556 556 565 575 767 767 814 789 761 761 773 672 672 793 801 593 593 375 208 134 3 3 0 nan nan nan nan nan nan nan nan nan nan nan nan nan nan nan nan nan nan nan nan nan nan nan nan nan nan
2155 2265 2162 2162 1845 1659 1659 1154 1371 1270 1270 1288 1308 1284 1284 1256 1432 1905 2482 2482 2625 2727 3300 3300 3764 2855 2855 2635 2192 2159 2159 2170 1914 2292 2445 2445 2743 2855 2252 2252 1460 1216 1061 1061 1030 1288 1514 1514 1018 831 831 418 491 568 648 648 732 1096 754 754 764 700 980 980 1075 885 885 858 828 454 454 344 185 63 12 12 3 nan nan nan nan 3 nan nan nan nan nan nan nan nan nan nan nan nan nan nan nan nan nan nan nan nan nan
2262 2203 2014 2014 1783 1472 1472 1328 1145 965 965 1099 1076 1050 1050 1062 1114 1790 1970 1970 2286 2750 3668 3668 3489 2831 2831 2379 1854 1691 1691 1964 1887 2686 2510 2510 2384 2540 2276 2276 1791 1283 926 926 498 907 1324 1324 1046 747 747 509 453 494 536 536 546 590 636 636 792 692 1009 1009 1143 1033 1033 924 707 334 334 140 36 nan 5 5 5 nan nan nan nan 26 nan nan nan nan nan nan nan nan nan nan nan nan nan nan nan nan nan nan nan nan nan
2025 2051 1862 1862 1715 1403 1403 1217 1113 971 971 1106 1123 1261 1261 947 1408 1628 2069 2069 2167 1954 3017 3017 2982 2899 2899 2351 1696 1452 1452 1463 1433 1788 2069 2069 1948 2235 2115 2115 1907 1396 1036 1036 667 471 873 873 1365 856 856 610 483 525 435 435 476 518 631 631 1096 836 735 735 1013 868 868 803 598 446 446 151 24 nan nan nan nan nan nan nan nan nan nan nan nan nan nan nan 7 1 1 nan nan nan nan nan nan nan nan nan nan nan nan
1914 2022 1663 1663 1393 1247 1247 1102 1038 1015 1015 912 1088 1183 1183 1031 1371 1507 1902 1902 2045 1790 2065 2065 2166 2268 2268 2054 1802 1641 1641 1238 1171 1388 1916 1916 1842 2167 2094 2094 1713 1302 1192 1192 774 469 479 479 997 743 743 349 269 664 931 931 756 420 738 738 1091 761 593 593 708 612 612 619 497 299 299 232 19 nan nan nan nan nan nan nan nan nan nan nan nan nan nan nan nan 0 0 nan nan nan nan nan nan nan nan nan nan nan nan
1757 2033 1629 1629 1115 1090 1090 1066 847 1060 1060 957 934 870 870 997 1048 1553 1521 1521 1703 1844 1349 1349 1612 1541 1541 1347 1360 1497 1497 1223 1000 1294 1816 1816 1743 1841 1944 1944 1785 1333 1389 1389 921 566 350 350 882 854 854 682 270 395 933 933 1098 452 597 597 750 617 428 428 568 478 478 586 494 411 411 196 57 nan nan nan nan nan nan nan nan nan nan nan nan nan nan nan nan nan nan nan nan nan nan nan nan nan nan nan nan nan nan
1766 1371 1636 1636 1081 938 938 1151 1169 987 987 1004 904 593 593 674 1255 1431 1361 1361 1335 1350 969 969 1138 1191 1191 931 868 1034 1034 1087 870 1079 1717 1717 1603 1529 1756 1756 1641 1281 1336 1336 1108 737 374 374 449 525 525 570 217 223 744 744 574 692 561 561 535 478 332 332 818 577 577 518 394 289 289 205 66 nan nan nan nan nan nan nan nan nan nan nan nan nan nan nan nan nan nan nan nan nan nan nan nan nan nan nan nan nan nan
1690 1459 1476 1476 1167 1103 1103 1158 1175 996 996 1013 915 892 892 904 1183 1236 1019 1019 738 822 619 619 771 785 785 586 564 608 608 727 815 868 1279 1279 1378 1350 1614 1614 1501 1188 1243 1243 1176 839 561 561 441 389 389 366 197 168 142 142 265 948 360 360 399 317 227 227 925 1014 1014 725 333 339 339 177 148 72 nan nan nan nan nan nan nan nan nan nan nan nan nan nan nan nan nan nan nan nan nan nan nan nan nan nan nan nan nan
1289 1108 1361 1361 1138 1272 1272 1091 1107 1085 1085 988 1195 1209 1209 1145 1007 946 602 602 486 410 446 446 578 526 526 417 369 405 405 507 726 815 907 907 1001 939 992 992 930 983 1232 1232 1286 983 730 730 405 543 543 485 299 179 143 143 425 747 479 479 294 252 243 243 519 850 850 680 690 558 558 133 96 93 nan nan nan nan nan nan nan nan nan nan nan nan nan nan nan nan nan nan nan nan nan nan nan nan nan nan nan nan nan
1198 1252 1153 1153 1207 1147 1147 1163 1104 1198 1198 1217 1119 872 872 774 750 727 704 704 717 441 674 674 524 538 538 458 355 310 310 375 539 585 600 600 451 403 446 446 463 388 375 375 417 429 595 595 415 318 318 325 304 237 180 180 233 367 420 420 341 270 295 295 323 461 461 498 289 224 224 118 34 15 2 2 nan nan nan nan nan nan nan nan nan nan nan nan nan nan nan nan nan nan nan nan nan nan nan nan nan nan nan
1181 1159 644 644 722 1243 1243 1070 976 1069 1069 1049 1104 818 818 653 630 515 527 527 569 403 532 532 580 806 806 752 629 576 576 401 384 550 564 564 448 369 353 353 457 385 260 260 216 247 445 445 456 325 325 247 242 203 269 269 303 274 290 290 284 243 248 248 297 395 395 505 300 182 182 89 40 4 nan nan nan nan nan nan nan nan nan nan nan nan nan nan nan nan nan nan nan nan nan nan nan nan nan nan nan nan nan
1130 1034 903 903 401 1111 1111 906 745 657 657 775 650 628 628 673 524 447 402 402 560 574 404 404 509 658 658 574 558 477 477 344 383 456 437 437 416 367 378 378 483 357 279 279 203 217 335 335 289 245 245 204 188 173 256 256 274 268 322 322 234 220 226 226 299 316 316 365 301 204 204 93 39 1 12 12 nan nan nan nan nan nan nan nan nan nan nan nan nan nan nan nan nan nan nan nan nan nan nan nan nan nan nan
1041 944 1101 1101 559 837 837 612 246 135 135 223 108 435 435 473 545 440 317 317 275 216 168 168 254 400 400 415 370 329 329 291 354 368 301 301 297 308 334 334 449 336 266 266 226 228 240 240 189 162 162 145 120 133 138 138 171 185 220 220 215 204 179 179 174 211 211 249 263 214 214 125 43 10 0 0 1 nan nan nan nan nan nan nan nan nan nan nan nan nan nan nan nan nan nan nan nan nan nan nan nan nan nan
915 1033 971 971 634 580 580 247 23 7 7 49 147 276 276 435 535 196 175 175 148 108 104 104 146 230 230 210 266 299 299 288 253 225 212 212 191 185 209 209 251 228 188 188 211 242 253 253 203 130 130 127 95 97 100 100 118 139 111 111 155 164 134 134 206 148 148 152 175 177 177 141 84 39 7 7 3 nan nan nan nan nan nan nan nan nan nan nan nan nan nan nan nan nan nan nan nan nan nan nan nan nan nan
756 868 806 806 580 314 314 26 0 5 5 29 114 166 166 276 308 247 132 132 69 56 62 62 120 192 192 199 236 275 275 310 206 160 151 151 125 104 79 79 108 111 120 120 120 157 176 176 159 125 125 109 88 88 101 101 109 136 120 120 136 134 114 114 113 101 101 134 149 141 141 102 78 25 6 6 1 1 nan nan nan nan nan nan nan nan nan nan nan nan nan nan nan nan nan nan nan nan nan nan nan nan nan
575 777 618 618 416 43 43 nan nan 4 4 34 41 66 66 84 52 55 48 48 29 36 54 54 78 7 7 7 37 86 86 87 43 30 25 25 9 2 0 0 17 40 63 63 72 95 89 89 122 90 90 72 70 69 93 93 88 135 128 128 136 120 110 110 122 157 157 185 216 198 198 157 161 61 15 15 9 1 nan nan nan nan nan nan nan nan nan nan nan nan nan nan nan nan nan nan nan nan nan nan nan nan nan
322 596 570 570 140 nan nan nan nan 5 5 5 nan nan nan nan nan nan nan nan nan nan nan nan nan nan nan nan nan nan nan nan nan nan nan nan nan nan nan nan nan nan 1 1 19 40 49 49 69 85 85 63 50 43 72 72 76 125 144 144 147 138 140 140 140 145 145 114 207 241 241 399 249 107 101 101 41 3 0 0 1 3 0 0 nan nan nan nan nan nan nan nan nan nan nan nan nan nan nan nan nan nan nan
138 318 237 237 nan nan nan nan nan nan nan nan nan nan nan nan nan nan nan nan nan nan nan nan nan nan nan nan nan nan nan nan nan nan nan nan nan nan nan nan nan nan nan nan nan nan 2 2 25 48 48 49 41 24 32 32 34 81 104 104 128 122 198 198 244 203 203 146 186 248 248 353 261 170 120 120 89 33 6 6 4 14 8 8 nan nan nan nan nan nan nan 0 0 2 6 6 nan nan nan nan nan nan nan
17 11 nan nan nan nan nan nan nan nan nan nan nan nan nan nan nan nan nan nan nan nan nan nan nan nan nan nan nan nan nan nan nan nan nan nan nan nan nan nan nan nan nan nan nan nan nan nan 3 9 9 13 18 15 8 8 22 46 54 54 53 82 141 141 145 184 184 174 170 256 256 302 287 200 136 136 110 78 45 45 42 29 20 20 nan nan nan nan nan nan nan nan nan 2 23 23 21 3 nan nan nan nan nan
nan nan nan nan nan nan nan nan nan nan nan nan nan nan nan nan nan nan nan nan nan nan nan nan nan nan nan nan nan nan nan nan nan nan nan nan nan nan nan nan nan nan nan nan nan nan nan nan nan nan nan nan nan nan nan nan 1 10 32 32 34 51 73 73 87 104 104 120 144 177 177 242 222 225 178 178 131 113 91 91 71 40 33 33 4 nan nan nan nan nan nan nan 1 3 5 5 17 15 8 8 1 1 1
nan nan nan nan nan nan nan nan nan nan nan nan nan nan nan nan nan nan nan nan nan nan nan nan nan nan nan nan nan nan nan nan nan nan nan nan nan nan nan nan nan nan nan nan nan nan nan nan nan nan nan nan nan nan nan nan nan nan 12 12 23 28 32 32 46 62 62 82 114 130 130 178 174 194 213 213 151 128 113 113 102 73 51 51 21 5 5 nan nan nan nan 6 22 19 7 7 1 7 23 23 29 15 10
nan nan nan nan nan nan nan nan nan nan nan nan nan nan nan nan nan nan nan nan nan nan nan nan nan nan nan nan nan nan nan nan nan nan nan nan nan nan nan nan nan nan nan nan nan nan nan nan nan nan nan nan nan nan nan nan nan nan nan nan 6 15 27 27 36 56 56 57 66 96 96 145 148 147 178 178 139 126 103 103 93 90 117 117 67 23 23 3 nan 3 3 30 37 33 21 21 11 10 18 18 49 47 29
nan nan nan nan nan nan nan nan nan nan nan nan nan nan nan nan nan nan nan nan nan nan nan nan nan nan nan nan nan nan nan nan nan nan nan nan nan nan nan nan nan nan nan nan nan nan nan nan nan nan nan nan nan nan nan nan nan nan nan nan 0 7 14 14 20 27 27 62 77 95 95 129 145 128 157 157 147 123 110 110 76 78 123 123 130 88 88 22 7 4 4 14 33 35 29 29 31 38 30 30 35 46 45
nan nan nan nan nan nan nan nan nan nan nan nan nan nan nan nan nan nan nan nan nan nan nan nan nan nan nan nan nan nan nan nan nan nan nan nan nan nan nan nan nan nan nan nan nan nan nan nan nan nan nan nan nan nan nan nan nan nan nan nan nan 2 4 4 9 20 20 45 75 84 84 100 122 103 129 129 166 131 114 114 91 70 63 63 132 142 142 81 39 13 13 8 17 27 30 30 42 45 38 38 46 49 60
nan nan nan nan nan nan nan nan nan nan nan nan nan nan nan nan nan nan nan nan nan nan nan nan nan nan nan nan nan nan nan nan nan nan nan nan nan nan nan nan nan nan nan nan nan nan nan nan nan nan nan nan nan nan nan nan nan nan nan nan nan 0 2 2 3 8 8 21 46 73 73 81 115 105 97 97 126 133 121 121 113 94 95 95 114 175 175 150 80 40 40 19 12 13 30 30 30 29 32 32 42 42 86
nan nan nan nan nan nan nan nan nan nan nan nan nan nan nan nan nan nan nan nan nan nan nan nan nan nan nan nan nan nan nan nan nan nan nan nan nan nan nan nan nan nan nan nan nan nan nan nan nan nan nan nan nan nan nan nan nan nan nan nan nan nan 1 1 3 7 7 11 25 61 61 79 106 91 81 81 76 116 127 127 118 118 99 99 127 166 166 175 117 74 74 50 28 24 33 33 29 21 29 29 29 29 68
nan nan nan nan nan nan nan nan nan nan nan nan nan nan nan nan nan nan nan nan nan nan nan nan nan nan nan nan nan nan nan nan nan nan nan nan nan nan nan nan nan nan nan nan nan nan nan nan nan nan nan nan nan nan nan nan nan nan nan nan nan nan nan nan 1 6 6 9 16 45 45 49 58 75 95 95 81 124 119 119 118 105 115 115 110 101 101 125 152 111 111 72 44 32 28 28 33 21 27 27 22 33 39
nan nan nan nan nan nan nan nan nan nan nan nan nan nan nan nan nan nan nan nan nan nan nan nan nan nan nan nan nan nan nan nan nan nan nan nan nan nan nan nan nan nan nan nan nan nan nan nan nan nan nan nan nan nan nan nan nan nan nan nan nan nan nan nan nan 2 2 10 18 35 35 53 70 89 99 99 109 132 142 142 97 99 109 109 105 98 98 93 108 109 109 89 56 34 22 22 27 19 30 30 39 48 39
nan nan nan nan nan nan nan nan nan nan nan nan nan nan nan nan nan nan nan nan nan nan nan nan nan nan nan nan nan nan nan nan nan nan nan nan nan nan nan nan nan nan nan nan nan nan nan nan nan nan nan nan nan nan nan nan nan nan nan nan nan nan nan nan nan 1 1 9 20 29 29 45 71 87 88 88 97 106 124 124 109 84 87 87 105 94 94 104 96 81 81 120 84 41 24 24 20 23 46 46 63 55 42
nan nan nan nan nan nan nan nan nan nan nan nan nan nan nan nan nan nan nan nan nan nan nan nan nan nan nan nan nan nan nan nan nan nan nan nan nan nan nan nan nan nan nan nan nan nan nan nan nan nan nan nan nan nan nan nan nan nan nan nan nan nan nan nan nan 0 0 5 14 26 26 38 43 51 58 58 64 77 64 64 84 85 79 79 83 84 84 92 96 72 72 98 102 72 48 48 47 34 56 56 67 49 32
nan nan nan nan nan nan nan nan nan nan nan nan nan nan nan nan nan nan nan nan nan nan nan nan nan nan nan nan nan nan nan nan nan nan nan nan nan nan nan nan nan nan nan nan nan nan nan nan nan nan nan nan nan nan nan nan nan nan nan nan nan nan nan nan nan nan nan nan 1 9 9 17 15 14 16 16 15 17 36 36 56 52 48 48 45 37 37 33 19 10 10 11 33 61 70 70 74 75 57 57 38 26 23
nan nan nan nan nan nan nan nan nan nan nan nan nan nan nan nan nan nan nan nan nan nan nan nan nan nan nan nan nan nan nan nan nan nan nan nan nan nan nan nan nan nan nan nan nan nan nan nan nan nan nan nan nan nan nan nan nan nan nan nan nan nan nan nan nan nan nan nan nan nan nan 0 2 1 2 2 6 6 10 10 10 2 1 1 6 6 6 2 nan nan nan nan nan 5 9 9 25 51 56 56 28 16 18
nan nan nan nan nan nan nan nan nan nan nan nan nan nan nan nan nan nan nan nan nan nan nan nan nan nan nan nan nan nan nan nan nan nan nan nan nan nan nan nan nan nan nan nan nan nan nan nan nan nan nan nan nan nan nan nan nan nan nan nan nan nan nan nan nan nan nan nan nan nan nan nan 2 4 6 6 9 7 2 2 1 nan nan nan 0 0 0 nan nan nan nan nan nan nan nan nan nan nan nan nan nan 3 7
nan nan nan nan nan nan nan nan nan nan nan nan nan nan nan nan nan nan nan nan nan nan nan nan nan nan nan nan nan nan nan nan nan nan nan nan nan nan nan nan nan nan nan nan nan nan nan nan nan nan nan nan nan nan nan nan nan nan nan nan nan nan nan nan nan nan nan nan 0 1 1 0 5 1 8 8 13 16 8 8 5 15 20 20 25 28 28 25 24 17 17 13 9 6 9 9 18 24 35 35 32 31 26
nan nan nan nan nan nan nan nan nan nan nan nan nan nan nan nan nan nan nan nan nan nan nan nan nan nan nan nan nan nan nan nan nan nan nan nan nan nan nan nan nan nan nan nan nan nan nan nan nan nan nan nan nan nan nan nan nan nan nan nan nan nan 0 0 1 4 4 3 1 3 3 3 7 5 12 12 12 15 29 29 31 30 32 32 32 31 31 35 33 34 34 33 31 22 27 27 26 32 33 33 45 42 48
nan nan nan nan nan nan nan nan nan nan nan nan nan nan nan nan nan nan nan nan nan nan nan nan nan nan nan nan nan nan nan nan nan nan nan nan nan nan nan nan nan nan nan nan nan nan nan nan nan nan nan nan nan nan nan nan nan nan nan nan nan 0 1 1 2 8 8 8 6 4 4 5 8 18 25 25 26 19 27 27 35 30 24 24 26 29 29 25 19 13 13 13 13 16 16 16 16 18 16 16 18 23 26
nan nan nan nan nan nan nan nan nan nan nan nan nan nan nan nan nan nan nan nan nan nan nan nan nan nan nan nan nan nan nan nan nan nan nan nan nan nan nan nan nan nan nan nan nan nan nan nan nan nan nan nan nan nan nan nan nan nan 0 0 0 2 8 8 11 11 11 11 14 10 10 12 17 21 36 36 27 29 27 27 23 11 3 3 5 6 6 9 12 12 12 15 15 15 15 15 15 16 16 16 14 16 16
nan nan nan nan nan nan nan nan nan nan nan nan nan nan nan nan nan nan nan nan nan nan nan nan nan nan nan nan nan nan nan nan nan nan nan nan nan nan nan nan nan nan nan nan nan nan nan nan nan nan nan nan nan nan nan nan 0 2 4 4 7 6 15 15 17 17 17 17 21 19 19 20 40 40 30 30 19 7 2 2 0 2 5 5 6 8 8 10 11 13 13 13 13 17 15 15 19 17 19 19 18 20 21